Volver al catálogo

STARLINK-5348

ActivoComunicacionesVLEO
NORAD 56515·PAYLOAD·🇺🇸 United States

Lanzado May 14, 2023 desde Cape Canaveral Space Force Station

Loading…

Próximos Pases (próximas 24 horas)

TLE

ActualizadoSource: CelesTrak SupGP

Época: Sep 14, 2026, 21:10 UTC

1 56515C 23065N   26257.88243056  .00027035  00000+0  97922-3 0  2571
2 56515  42.9995 223.9667 0001011 251.0213 153.9820 15.27565222    10

Sigue STARLINK-5348 en tiempo real con AllMySat

Download on the App Store